User: anonymous   Login
Location: Bannatyne
(13.0833°N, 59.5333°W)
Time: 06:08:56
(UTC+00:00)
Language:

Ariane H10 - Orbit

View from above orbital plane
View from above orbital plane
View from above satellite
View from above satellite

Ground track
Ground track

The orbit data is extracted from the following two-line orbital elements,

1 19773U 89006B   19342.72819105  .00000031  00000-0  80055-5 0  9999
2 19773   8.0376 265.5215 7160615  95.7836 342.3886  2.28344291256094
Epoch (UTC): 08 December 2019 17:28:35
Eccentricity: 0.7160615
inclination: 8.0376°
perigee height: 538 km
apogee height: 35424 km
right ascension of ascending node: 265.5215°
argument of perigee: 95.7836°
revolutions per day: 2.28344291
mean anomaly at epoch: 342.3886°
orbit number at epoch: 25609

The dashed part of the orbit path shows where the satellite is in the earth's shadow,  

DLR